CW0352 Weather Reports


Display with metric or nautical units.
time (UTC)temp
F
wind
direction
speed
MPH
gust
MPH
rain 1hr
in
rain 24hr
in
rain mn
in
humidity
%
barometer
mb
20260905232402 95 171 4.0 13.0 0.00 0.00 0.00 33 1015.8
20260905232100 95 174 4.0 13.0 0.00 0.00 0.00 34 1015.6
20260905231938 95 174 4.0 13.0 0.00 0.00 0.00 34 1015.6
20260905231326 95 142 4.0 12.0 0.00 0.00 0.00 34 1015.6
20260905230803 95 142 4.0 9.0 0.00 0.00 0.00 35 1015.5
20260905230302 95 132 5.0 13.0 0.00 0.00 0.00 36 1015.4
20260905225730 95 155 6.0 14.0 0.00 0.00 0.00 36 1015.5
20260905225203 95 112 6.0 14.0 0.00 0.00 0.00 35 1015.4
20260905224634 95 113 6.0 16.0 0.00 0.00 0.00 35 1015.4
20260905224123 96 115 7.0 16.0 0.00 0.00 0.00 35 1015.4
20260905223623 96 163 5.0 15.0 0.00 0.00 0.00 34 1015.4
20260905223413 97 148 3.0 13.0 0.00 0.00 0.00 34 1015.5
20260905222615 97 102 5.0 16.0 0.00 0.00 0.00 34 1015.5
20260905222048 97 111 6.0 16.0 0.00 0.00 0.00 34 1015.4
20260905221543 97 109 6.0 12.0 0.00 0.00 0.00 34 1015.5
20260905221041 97 128 5.0 12.0 0.00 0.00 0.00 33 1015.4
20260905220539 98 106 5.0 12.0 0.00 0.00 0.00 33 1015.6
20260905220036 97 155 5.0 13.0 0.00 0.00 0.00 33 1015.6
20260905215534 98 92 5.0 13.0 0.00 0.00 0.00 32 1015.7
20260905215029 98 148 5.0 12.0 0.00 0.00 0.00 32 1015.7
20260905214510 98 150 5.0 12.0 0.00 0.00 0.00 30 1015.8
20260905214012 98 171 5.0 15.0 0.00 0.00 0.00 31 1015.9
20260905213510 98 217 5.0 15.0 0.00 0.00 0.00 32 1015.8
20260905213227 98 146 5.0 13.0 0.00 0.00 0.00 30 1015.8
20260905213057 98 146 5.0 13.0 0.00 0.00 0.00 30 1015.8
20260905212454 98 115 5.0 10.0 0.00 0.00 0.00 31 1016.0
20260905212152 98 154 5.0 14.0 0.00 0.00 0.00 32 1016.1
20260905212037 98 154 5.0 14.0 0.00 0.00 0.00 32 1016.1
20260905211428 98 160 5.0 14.0 0.00 0.00 0.00 30 1016.3
20260905211118 98 143 5.0 11.0 0.00 0.00 0.00 31 1016.4
20260905210957 98 143 5.0 11.0 0.00 0.00 0.00 31 1016.4
20260905210324 98 140 5.0 13.0 0.00 0.00 0.00 32 1016.4
20260905205821 98 159 5.0 13.0 0.00 0.00 0.00 31 1016.5
20260905205308 97 159 6.0 14.0 0.00 0.00 0.00 31 1016.6
20260905204744 97 129 6.0 14.0 0.00 0.00 0.00 30 1016.8
20260905204223 97 145 6.0 17.0 0.00 0.00 0.00 30 1016.8
20260905203929 97 172 7.0 17.0 0.00 0.00 0.00 31 1016.9
20260905203808 97 172 7.0 17.0 0.00 0.00 0.00 31 1016.9
20260905203203 97 121 7.0 14.0 0.00 0.00 0.00 31 1016.8
20260905202703 97 103 6.0 14.0 0.00 0.00 0.00 30 1016.9
20260905202132 97 138 5.0 11.0 0.00 0.00 0.00 32 1016.9
20260905201630 96 111 6.0 12.0 0.00 0.00 0.00 32 1017.0
20260905201556 96 132 7.0 12.0 0.00 0.00 0.00 32 1017.1
20260905201215 96 132 7.0 12.0 0.00 0.00 0.00 32 1017.1
20260905200609 97 155 6.0 14.0 0.00 0.00 0.00 32 1017.1
20260905200115 97 119 6.0 14.0 0.00 0.00 0.00 32 1017.1
20260905195602 97 104 5.0 14.0 0.00 0.00 0.00 34 1017.2
20260905195101 96 186 5.0 14.0 0.00 0.00 0.00 35 1017.2
20260905194557 95 126 5.0 14.0 0.00 0.00 0.00 36 1017.4
20260905194031 95 134 5.0 14.0 0.00 0.00 0.00 37 1017.5
20260905193531 94 134 5.0 15.0 0.00 0.00 0.00 38 1017.5
20260905193256 93 110 7.0 14.0 0.00 0.00 0.00 38 1017.5
20260905193126 93 110 7.0 14.0 0.00 0.00 0.00 38 1017.5
20260905192519 92 129 7.0 14.0 0.00 0.00 0.00 38 1017.6
20260905191950 93 68 5.0 14.0 0.00 0.00 0.00 38 1017.6
20260905191423 92 141 5.0 13.0 0.00 0.00 0.00 39 1017.7
20260905190919 93 112 6.0 13.0 0.00 0.00 0.00 39 1017.7
20260905190404 93 128 6.0 13.0 0.00 0.00 0.00 38 1017.7
20260905185858 93 78 4.0 11.0 0.00 0.00 0.00 38 1017.8
20260905185332 93 132 6.0 14.0 0.00 0.00 0.00 39 1017.8
20260905184828 93 152 7.0 15.0 0.00 0.00 0.00 38 1017.7
20260905184326 93 130 6.0 15.0 0.00 0.00 0.00 39 1017.7
20260905183819 93 119 6.0 13.0 0.00 0.00 0.00 39 1017.8
20260905183309 92 146 6.0 15.0 0.00 0.00 0.00 40 1017.8
20260905182806 92 109 6.0 15.0 0.00 0.00 0.00 40 1017.8
20260905182259 92 122 6.0 14.0 0.00 0.00 0.00 40 1017.8
20260905182001 93 144 6.0 14.0 0.00 0.00 0.00 39 1017.7
20260905181728 93 144 6.0 14.0 0.00 0.00 0.00 39 1017.7
20260905181716 94 129 5.0 14.0 0.00 0.00 0.00 38 1017.8
20260905181333 94 129 5.0 14.0 0.00 0.00 0.00 38 1017.8
20260905180723 93 173 4.0 11.0 0.00 0.00 0.00 39 1017.8
20260905180446 92 156 4.0 13.0 0.00 0.00 0.00 40 1017.8
20260905180323 92 156 4.0 13.0 0.00 0.00 0.00 40 1017.8
20260905175700 92 130 5.0 13.0 0.00 0.00 0.00 40 1017.9
20260905175200 92 109 5.0 19.0 0.00 0.00 0.00 39 1018.0
20260905175040 92 113 5.0 19.0 0.00 0.00 0.00 39 1017.9
20260905174955 92 113 5.0 19.0 0.00 0.00 0.00 39 1017.9
20260905174158 92 140 6.0 14.0 0.00 0.00 0.00 39 1018.0
20260905173646 92 130 5.0 10.0 0.00 0.00 0.00 39 1018.2
20260905173120 92 101 5.0 13.0 0.00 0.00 0.00 40 1018.3
20260905172607 92 150 5.0 11.0 0.00 0.00 0.00 40 1018.3
20260905172103 92 134 4.0 11.0 0.00 0.00 0.00 40 1018.3
20260905172044 92 202 4.0 10.0 0.00 0.00 0.00 40 1018.3
20260905171654 92 202 4.0 10.0 0.00 0.00 0.00 40 1018.3
20260905171031 92 129 5.0 11.0 0.00 0.00 0.00 41 1018.6
20260905170531 91 112 5.0 11.0 0.00 0.00 0.00 42 1018.6
20260905170015 92 138 4.0 10.0 0.00 0.00 0.00 42 1018.6
20260905165514 91 138 3.0 8.0 0.00 0.00 0.00 42 1018.6
20260905164950 91 146 3.0 10.0 0.00 0.00 0.00 42 1018.4
20260905164419 90 209 4.0 10.0 0.00 0.00 0.00 43 1018.4
20260905164204 90 142 4.0 10.0 0.00 0.00 0.00 44 1018.6
20260905164030 90 142 4.0 10.0 0.00 0.00 0.00 44 1018.6
20260905163412 89 139 4.0 12.0 0.00 0.00 0.00 44 1018.4
20260905163156 89 130 4.0 12.0 0.00 0.00 0.00 46 1018.6
20260905163021 89 130 4.0 12.0 0.00 0.00 0.00 46 1018.6
20260905162402 89 133 3.0 9.0 0.00 0.00 0.00 45 1018.4
20260905161853 88 152 3.0 9.0 0.00 0.00 0.00 47 1018.4
20260905161738 88 123 3.0 10.0 0.00 0.00 0.00 47 1018.4
20260905161648 88 123 3.0 10.0 0.00 0.00 0.00 47 1018.4
20260905160833 88 129 4.0 11.0 0.00 0.00 0.00 48 1018.4
20260905160331 87 128 3.0 11.0 0.00 0.00 0.00 48 1018.4
20260905160052 87 133 4.0 11.0 0.00 0.00 0.00 49 1018.4
20260905160003 87 163 4.0 11.0 0.00 0.00 0.00 49 1018.4
20260905155932 87 133 4.0 11.0 0.00 0.00 0.00 49 1018.4
20260905155616 87 163 4.0 11.0 0.00 0.00 0.00 49 1018.4
20260905154822 87 150 4.0 10.0 0.00 0.00 0.00 49 1018.3
20260905154319 87 138 3.0 7.0 0.00 0.00 0.00 50 1018.3
20260905153821 86 159 3.0 9.0 0.00 0.00 0.00 50 1018.1
20260905153317 86 149 3.0 9.0 0.00 0.00 0.00 49 1018.0
20260905152802 86 163 3.0 8.0 0.00 0.00 0.00 49 1017.9
20260905152522 86 181 3.0 9.0 0.00 0.00 0.00 50 1017.9
20260905152402 86 181 3.0 9.0 0.00 0.00 0.00 50 1017.9
20260905151729 85 144 3.0 10.0 0.00 0.00 0.00 50 1017.9
20260905151228 84 244 2.0 10.0 0.00 0.00 0.00 50 1017.8
20260905150703 83 157 2.0 6.0 0.00 0.00 0.00 53 1017.9
20260905150135 83 128 1.0 4.0 0.00 0.00 0.00 55 1017.8
20260905145841 82 126 2.0 6.0 0.00 0.00 0.00 57 1017.7
20260905145715 82 126 2.0 6.0 0.00 0.00 0.00 57 1017.7
20260905145107 81 126 2.0 6.0 0.00 0.00 0.00 58 1017.7
20260905144556 79 96 1.0 4.0 0.00 0.00 0.00 60 1017.6
20260905144051 78 96 1.0 3.0 0.00 0.00 0.00 63 1017.7
20260905143526 76 196 0.0 3.0 0.00 0.00 0.00 66 1018.3
20260905143030 75 22 0.0 0.0 0.00 0.00 0.00 69 1017.7
20260905142521 74 104 0.0 0.0 0.00 0.00 0.00 70 1017.8
20260905142216 73 104 0.0 0.0 0.00 0.00 0.00 72 1017.7
20260905142059 73 104 0.0 0.0 0.00 0.00 0.00 72 1017.7
20260905141446 73 247 0.0 0.0 0.00 0.00 0.00 72 1017.7
20260905140926 72 247 0.0 1.0 0.00 0.00 0.00 74 1017.6
20260905140420 71 271 0.0 0.0 0.00 0.00 0.00 74 1017.7
20260905135853 71 271 0.0 0.0 0.00 0.00 0.00 75 1017.6
20260905135349 70 0 0.0 0.0 0.00 0.00 0.00 76 1017.6
20260905135105 70 0 0.0 0.0 0.00 0.00 0.00 76 1017.7
20260905134946 70 0 0.0 0.0 0.00 0.00 0.00 76 1017.7
20260905134332 69 0 0.0 0.0 0.00 0.00 0.00 77 1017.5
20260905133809 68 0 0.0 0.0 0.00 0.00 0.00 78 1017.5
20260905133239 68 0 0.0 0.0 0.00 0.00 0.00 78 1017.4
20260905132722 68 0 0.0 0.0 0.00 0.00 0.00 78 1017.4
20260905132205 67 0 0.0 2.0 0.00 0.00 0.00 78 1017.4
20260905131711 67 0 0.0 2.0 0.00 0.00 0.00 79 1017.1
20260905131535 67 0 0.0 2.0 0.00 0.00 0.00 80 1017.2
20260905131454 67 0 0.0 2.0 0.00 0.00 0.00 80 1017.2
20260905130703 66 0 0.0 1.0 0.00 0.00 0.00 80 1017.0
20260905130133 66 0 0.0 1.0 0.00 0.00 0.00 80 1017.0
20260905125628 65 0 0.0 1.0 0.00 0.00 0.00 80 1016.9
20260905125322 65 0 0.0 2.0 0.00 0.00 0.00 80 1016.8
20260905125205 65 0 0.0 2.0 0.00 0.00 0.00 80 1016.8
20260905124601 65 0 0.0 2.0 0.00 0.00 0.00 79 1016.7
20260905124100 66 0 0.0 1.0 0.00 0.00 0.00 79 1016.7
20260905123601 66 0 0.0 1.0 0.00 0.00 0.00 79 1016.6
20260905123033 66 0 0.0 0.0 0.00 0.00 0.00 79 1016.4
20260905123001 66 0 0.0 0.0 0.00 0.00 0.00 78 1016.5
20260905122613 66 0 0.0 0.0 0.00 0.00 0.00 78 1016.5
20260905121944 66 0 0.0 0.0 0.00 0.00 0.00 77 1016.4
20260905121436 67 0 0.0 0.0 0.00 0.00 0.00 77 1016.3
20260905121129 67 0 0.0 0.0 0.00 0.00 0.00 76 1016.4
20260905121016 67 0 0.0 0.0 0.00 0.00 0.00 76 1016.4
20260905120715 67 0 0.0 0.0 0.00 0.00 0.00 76 1016.4
20260905120633 67 0 0.0 0.0 0.00 0.00 0.00 76 1016.4
20260905115839 67 0 0.0 0.0 0.00 0.00 0.00 76 1016.5
20260905115336 67 0 0.0 0.0 0.00 0.00 0.00 76 1016.5
20260905114831 68 0 0.0 0.0 0.00 0.00 0.00 75 1016.5
20260905114327 68 0 0.0 0.0 0.00 0.00 0.00 75 1016.6
20260905113803 68 0 0.0 0.0 0.00 0.00 0.00 74 1016.5
20260905113244 68 0 0.0 0.0 0.00 0.00 0.00 73 1016.4
20260905112706 68 0 0.0 0.0 0.00 0.00 0.00 73 1016.5
20260905112216 68 0 0.0 3.0 0.00 0.00 0.00 73 1016.5
20260905112157 69 0 0.0 3.0 0.00 0.00 0.00 73 1016.6
20260905111811 69 0 0.0 3.0 0.00 0.00 0.00 73 1016.6
20260905111210 69 0 1.0 5.0 0.00 0.00 0.00 73 1016.7
20260905110701 69 0 1.0 5.0 0.00 0.00 0.00 73 1016.8
20260905110159 69 0 1.0 3.0 0.00 0.00 0.00 73 1016.9
20260905105653 69 0 1.0 3.0 0.00 0.00 0.00 72 1016.9
20260905105624 69 0 1.0 4.0 0.00 0.00 0.00 72 1016.8
20260905105231 69 0 1.0 4.0 0.00 0.00 0.00 72 1016.8
20260905104606 69 0 1.0 4.0 0.00 0.00 0.00 72 1016.8
20260905104037 69 0 0.0 2.0 0.00 0.00 0.00 72 1016.8
20260905103533 69 0 0.0 2.0 0.00 0.00 0.00 71 1016.9
20260905103010 69 0 0.0 0.0 0.00 0.00 0.00 71 1016.9
20260905102450 69 0 0.0 0.0 0.00 0.00 0.00 71 1016.8
20260905101939 69 0 0.0 0.0 0.00 0.00 0.00 70 1016.7
20260905101416 69 0 0.0 0.0 0.00 0.00 0.00 69 1016.7
20260905100921 70 0 0.0 1.0 0.00 0.00 0.00 69 1016.8
20260905100402 70 0 0.0 1.0 0.00 0.00 0.00 69 1016.7
20260905095902 70 0 0.0 0.0 0.00 0.00 0.00 68 1016.8
20260905095404 70 0 0.0 0.0 0.00 0.00 0.00 68 1016.8
20260905094858 70 0 0.0 2.0 0.00 0.00 0.00 67 1016.8
20260905094333 71 0 1.0 3.0 0.00 0.00 0.00 67 1016.8
20260905094027 71 0 0.0 3.0 0.00 0.00 0.00 66 1016.9
20260905093913 71 0 0.0 3.0 0.00 0.00 0.00 66 1016.9
20260905093305 71 0 0.0 3.0 0.00 0.00 0.00 66 1016.8
20260905092747 71 0 1.0 4.0 0.00 0.00 0.00 66 1016.9
20260905092247 71 0 1.0 3.0 0.00 0.00 0.00 66 1016.9
20260905091720 71 0 1.0 4.0 0.00 0.00 0.00 66 1016.9
20260905091217 71 0 1.0 4.0 0.00 0.00 0.00 65 1017.0
20260905090722 71 0 1.0 4.0 0.00 0.00 0.00 65 1017.1
20260905090543 71 0 1.0 4.0 0.00 0.00 0.00 65 1017.1
20260905090450 71 0 1.0 4.0 0.00 0.00 0.00 65 1017.1
20260905085651 71 0 1.0 4.0 0.00 0.00 0.00 65 1017.2
20260905085156 72 0 1.0 4.0 0.00 0.00 0.00 65 1017.2
20260905084652 72 0 2.0 5.0 0.00 0.00 0.00 64 1017.1
20260905084150 72 0 2.0 9.0 0.00 0.00 0.00 64 1017.2
20260905083638 72 0 3.0 9.0 0.00 0.00 0.00 63 1017.1
20260905083133 72 0 2.0 8.0 0.00 0.00 0.00 63 1017.0
20260905082638 72 0 2.0 6.0 0.00 0.00 0.00 63 1017.1
20260905082105 73 0 2.0 8.0 0.00 0.00 0.00 63 1017.0
20260905081603 73 0 1.0 8.0 0.00 0.00 0.00 63 1016.9
20260905081057 73 0 1.0 5.0 0.00 0.00 0.00 63 1016.9
20260905080557 73 0 1.0 4.0 0.00 0.00 0.00 62 1016.9
20260905080107 73 0 1.0 3.0 0.00 0.00 0.00 62 1017.0
20260905075532 74 0 0.0 3.0 0.00 0.00 0.00 62 1017.0
20260905075012 74 0 1.0 4.0 0.00 0.00 0.00 61 1017.0
20260905074521 74 0 1.0 6.0 0.00 0.00 0.00 60 1016.9
20260905074007 75 0 1.0 6.0 0.00 0.00 0.00 60 1017.0
20260905073446 75 0 2.0 6.0 0.00 0.00 0.00 59 1016.9
20260905073156 76 0 2.0 6.0 0.00 0.00 0.00 58 1016.9
20260905073034 76 0 2.0 6.0 0.00 0.00 0.00 58 1016.9
20260905072425 76 0 1.0 4.0 0.00 0.00 0.00 57 1016.9
20260905071926 76 0 1.0 4.0 0.00 0.00 0.00 56 1017.0
20260905071403 76 0 1.0 4.0 0.00 0.00 0.00 56 1017.1
20260905070902 77 0 1.0 5.0 0.00 0.00 0.00 55 1016.9
20260905070356 77 0 2.0 5.0 0.00 0.00 0.00 55 1016.9
20260905065854 77 0 2.0 5.0 0.00 0.00 0.00 54 1016.9
20260905065349 77 0 2.0 6.0 0.00 0.00 0.00 54 1016.9
20260905064846 78 0 2.0 6.0 0.00 0.00 0.00 53 1016.9
20260905064605 78 0 2.0 8.0 0.00 0.00 0.00 53 1017.0
20260905064443 78 0 2.0 8.0 0.00 0.00 0.00 53 1017.0
20260905063825 78 0 2.0 8.0 0.00 0.00 0.00 53 1017.0
20260905063319 77 0 2.0 6.0 0.00 0.00 0.00 53 1017.0
20260905063039 77 0 1.0 6.0 0.00 0.00 0.00 53 1017.1
20260905062910 77 0 1.0 6.0 0.00 0.00 0.00 53 1017.1
20260905062245 77 0 1.0 5.0 0.00 0.00 0.00 54 1017.1
20260905061712 77 0 2.0 5.0 0.00 0.00 0.00 54 1017.2
20260905061209 77 0 1.0 9.0 0.00 0.00 0.00 55 1017.2
20260905060702 77 0 1.0 9.0 0.00 0.00 0.00 56 1017.2
20260905060159 77 0 1.0 5.0 0.00 0.00 0.00 56 1017.1
20260905055655 77 0 1.0 5.0 0.00 0.00 0.00 56 1017.0
20260905055138 77 0 1.0 3.0 0.00 0.00 0.00 56 1017.0
20260905054639 77 0 1.0 3.0 0.00 0.00 0.00 56 1016.9
20260905054137 77 0 1.0 3.0 0.00 0.00 0.00 56 1016.8
20260905053639 77 0 0.0 3.0 0.00 0.00 0.00 56 1016.8
20260905053144 78 0 0.0 3.0 0.00 0.00 0.00 55 1016.9
20260905052639 78 0 1.0 3.0 0.00 0.00 0.00 55 1016.8
20260905052343 78 0 1.0 4.0 0.00 0.00 0.00 55 1016.8
20260905052218 78 0 1.0 4.0 0.00 0.00 0.00 55 1016.8
20260905051610 78 0 2.0 4.0 0.00 0.00 0.00 55 1016.8
20260905051322 78 0 1.0 4.0 0.00 0.00 0.00 55 1016.9
20260905051202 78 0 1.0 4.0 0.00 0.00 0.00 55 1016.9
20260905050805 79 0 1.0 4.0 0.00 0.00 0.00 56 1016.8
20260905050649 79 0 1.0 4.0 0.00 0.00 0.00 56 1016.8
20260905050056 79 0 1.0 4.0 0.00 0.00 0.00 56 1016.9
20260905045544 80 0 1.0 4.0 0.00 0.00 0.00 56 1016.9
20260905045305 80 0 1.0 3.0 0.00 0.00 0.00 56 1016.9
20260905045145 80 0 1.0 3.0 0.00 0.00 0.00 56 1016.9
20260905044513 80 0 0.0 2.0 0.00 0.00 0.00 56 1017.0
20260905044018 81 0 0.0 3.0 0.00 0.00 0.00 56 1017.0
20260905043444 81 0 0.0 3.0 0.00 0.00 0.00 55 1017.0
20260905042935 81 0 1.0 3.0 0.00 0.00 0.00 55 1016.9
20260905042637 81 0 2.0 5.0 0.00 0.00 0.00 55 1017.0
20260905042524 81 0 2.0 5.0 0.00 0.00 0.00 55 1017.0
20260905041914 81 0 2.0 5.0 0.00 0.00 0.00 54 1017.0
20260905041414 82 0 1.0 4.0 0.00 0.00 0.00 55 1016.9
20260905040841 82 0 0.0 3.0 0.00 0.00 0.00 54 1016.9
20260905040324 82 0 0.0 3.0 0.00 0.00 0.00 54 1016.8
20260905035823 82 0 1.0 3.0 0.00 0.00 0.00 53 1016.8
20260905035321 82 0 1.0 4.0 0.00 0.00 0.00 54 1016.7
20260905034822 82 0 2.0 5.0 0.00 0.00 0.00 54 1016.7
20260905034259 82 0 2.0 5.0 0.00 0.00 0.00 54 1016.6
20260905033757 82 0 2.0 5.0 0.00 0.00 0.00 54 1016.8
20260905033252 82 0 2.0 5.0 0.00 0.00 0.00 54 1016.7
20260905032748 82 0 2.0 5.0 0.00 0.00 0.00 54 1016.6
20260905032221 82 0 1.0 4.0 0.00 0.00 0.00 54 1016.6
20260905031717 82 0 1.0 4.0 0.00 0.00 0.00 54 1016.5
20260905031214 82 0 0.0 3.0 0.00 0.00 0.00 54 1016.6
20260905030651 82 0 1.0 2.0 0.00 0.00 0.00 53 1016.4
20260905030150 82 0 1.0 3.0 0.00 0.00 0.00 53 1016.1
20260905025611 82 0 1.0 4.0 0.00 0.00 0.00 53 1016.1
20260905025049 83 0 1.0 4.0 0.00 0.00 0.00 52 1016.0
20260905024806 83 0 0.0 3.0 0.00 0.00 0.00 53 1016.0
20260905024648 83 0 0.0 3.0 0.00 0.00 0.00 53 1016.0
20260905024037 83 0 1.0 3.0 0.00 0.00 0.00 53 1015.9
20260905023508 83 0 1.0 5.0 0.00 0.00 0.00 52 1015.8
20260905022952 83 0 1.0 5.0 0.00 0.00 0.00 53 1015.8
20260905022433 84 0 1.0 3.0 0.00 0.00 0.00 53 1015.7
20260905022208 85 0 1.0 4.0 0.00 0.00 0.00 52 1015.6
20260905022049 85 0 1.0 4.0 0.00 0.00 0.00 52 1015.6
20260905021705 85 0 1.0 5.0 0.00 0.00 0.00 52 1015.6
20260905021535 85 0 1.0 5.0 0.00 0.00 0.00 52 1015.6
20260905020904 86 0 1.0 5.0 0.00 0.00 0.00 51 1015.6
20260905020627 86 0 2.0 8.0 0.00 0.00 0.00 52 1015.6
20260905020501 86 0 2.0 8.0 0.00 0.00 0.00 52 1015.6
20260905015857 87 0 2.0 9.0 0.00 0.00 0.00 49 1015.6
20260905015354 87 0 4.0 10.0 0.00 0.00 0.00 45 1015.5
20260905014828 87 0 5.0 13.0 0.00 0.00 0.00 45 1015.2
20260905014323 87 0 6.0 13.0 0.00 0.00 0.00 44 1015.0
20260905014029 87 0 6.0 13.0 0.00 0.00 0.00 42 1015.0
20260905013902 87 0 6.0 13.0 0.00 0.00 0.00 42 1015.0
20260905013304 87 0 7.0 15.0 0.00 0.00 0.00 42 1014.9
20260905013023 88 0 6.0 15.0 0.00 0.00 0.00 42 1014.8
20260905012900 88 0 6.0 15.0 0.00 0.00 0.00 42 1014.8
20260905012251 89 0 5.0 14.0 0.00 0.00 0.00 40 1014.9
20260905011724 89 0 5.0 16.0 0.00 0.00 0.00 40 1014.8
20260905011225 91 0 6.0 16.0 0.00 0.00 0.00 40 1014.9
20260905010722 92 186 5.0 19.0 0.00 0.00 0.00 38 1015.0
20260905010222 93 145 5.0 19.0 0.00 0.00 0.00 36 1014.9
20260905005923 93 146 4.0 11.0 0.00 0.00 0.00 35 1014.7
20260905005806 93 146 4.0 11.0 0.00 0.00 0.00 35 1014.7
20260905005153 93 140 4.0 11.0 0.00 0.00 0.00 35 1014.5
20260905004908 94 152 4.0 11.0 0.00 0.00 0.00 35 1014.5
20260905004738 94 152 4.0 11.0 0.00 0.00 0.00 35 1014.5
20260905004134 94 136 3.0 9.0 0.00 0.00 0.00 35 1014.5
20260905003610 94 175 3.0 10.0 0.00 0.00 0.00 35 1014.5
20260905003047 94 121 3.0 10.0 0.00 0.00 0.00 35 1014.4
20260905002546 94 137 3.0 9.0 0.00 0.00 0.00 34 1014.6
20260905002032 95 138 3.0 12.0 0.00 0.00 0.00 34 1014.5
20260905001518 95 128 4.0 12.0 0.00 0.00 0.00 33 1014.4
20260905001014 95 146 3.0 9.0 0.00 0.00 0.00 33 1014.4
20260905000513 96 142 3.0 8.0 0.00 0.00 0.00 32 1014.4
20260904235959 96 154 3.0 8.0 0.00 0.00 0.00 31 1014.4
20260904235442 96 142 3.0 8.0 0.00 0.00 0.00 31 1014.2
20260904234921 96 161 3.0 9.0 0.00 0.00 0.00 31 1014.3
20260904234409 97 148 2.0 9.0 0.00 0.00 0.00 31 1014.3
20260904233909 97 134 1.0 5.0 0.00 0.00 0.00 31 1014.3
20260904233407 97 136 1.0 5.0 0.00 0.00 0.00 31 1014.3